Wind_Speed
40 40 39 36 35 29 30 30 32 28 24 15 19 17 18 19 14 15 19 24 29 35 42 46 50 52 60 62 67 72 87 89 100 111 111 115 99 75 62 53 28 10 21
45 43 42 41 38 33 31 31 31 28 25 21 19 16 12 17 12 12 14 20 25 29 37 41 47 51 55 61 63 70 79 88 98 104 110 115 111 86 72 58 42 15 25
51 47 48 45 41 36 33 32 33 30 26 26 21 18 13 12 14 12 14 15 21 25 30 38 47 49 53 59 66 62 75 84 88 102 107 115 117 105 75 60 48 26 18
56 50 51 49 44 38 35 34 34 33 30 27 23 20 14 11 18 11 14 15 18 22 28 37 44 47 52 57 62 62 68 78 85 97 103 110 116 113 93 64 49 34 8
61 53 52 56 45 38 37 37 36 34 33 28 25 21 16 14 17 14 14 14 15 20 27 35 38 44 51 54 58 58 65 71 79 92 100 105 112 112 106 86 56 39 21
51 52 55 44 42 39 39 41 39 36 33 32 27 22 21 17 18 19 16 20 18 18 24 31 38 47 49 53 56 55 61 62 70 88 91 105 110 108 110 102 73 48 30
48 41 40 41 45 49 46 47 44 38 35 34 31 24 21 20 20 23 21 20 23 22 24 26 33 41 48 49 56 56 58 62 65 81 86 99 101 106 109 106 97 66 42
46 51 52 63 64 56 55 53 50 42 38 37 33 26 20 20 21 26 27 23 22 22 24 28 29 31 41 47 51 56 53 56 58 70 79 89 96 103 106 104 103 92 61
77 81 72 67 68 64 62 59 55 48 41 40 34 29 26 19 22 25 30 25 24 25 26 24 27 31 33 46 48 51 53 53 50 60 69 82 88 95 100 102 101 101 88
89 84 80 72 65 64 65 63 59 52 45 42 36 31 27 19 22 26 31 29 25 26 26 28 29 33 32 40 45 48 48 50 48 51 65 72 82 87 94 97 96 99 98
99 93 88 82 78 73 70 68 61 56 49 46 40 32 29 23 23 24 26 26 29 32 28 30 27 23 26 35 40 45 43 47 45 47 56 65 76 79 85 89 95 92 94
96 95 89 84 82 78 75 69 65 60 53 43 38 32 33 24 24 17 19 23 22 26 30 29 29 12 24 30 39 42 42 44 45 43 50 56 59 73 75 84 89 92 94
100 94 89 89 87 81 74 69 69 64 57 48 45 36 34 25 23 17 17 20 23 26 26 26 17 17 26 25 35 38 40 40 42 44 43 51 53 57 67 70 80 87 89
101 96 90 90 88 82 78 73 69 64 58 50 47 44 39 32 31 25 22 18 25 18 20 13 11 12 21 22 29 34 38 37 39 38 41 45 46 51 59 65 68 80 83
97 91 95 93 88 84 81 77 73 67 59 50 48 45 40 38 35 31 29 23 23 22 21 22 17 16 9 20 29 27 30 33 34 34 37 38 42 46 53 59 61 68 76
103 100 100 96 94 90 84 79 75 71 64 53 49 45 43 40 37 35 34 29 24 25 25 30 32 30 34 34 31 25 21 28 29 31 33 35 39 44 47 52 55 64 71
108 104 100 95 93 91 88 82 78 72 65 56 54 47 43 40 38 42 39 37 29 27 29 33 34 36 33 31 29 27 29 23 29 31 29 30 32 40 41 47 49 54 61
108 108 105 98 94 90 87 84 82 77 71 64 60 55 50 45 44 45 46 42 36 30 29 33 32 31 30 28 28 29 26 28 28 28 24 26 27 33 37 40 46 48 52
101 104 106 102 97 92 86 83 80 79 74 68 64 61 57 51 48 52 52 50 45 38 34 31 32 30 27 27 32 29 32 35 34 28 20 23 20 25 27 38 42 45 45
99 98 101 102 99 95 89 85 79 75 72 69 67 62 60 58 52 52 59 58 51 45 39 36 31 26 29 28 28 28 29 30 28 19 20 18 23 20 23 29 37 42 46
94 94 95 97 98 95 92 87 82 77 72 68 67 64 60 58 55 53 58 61 61 50 45 43 39 37 30 25 29 26 23 25 16 17 10 12 18 20 23 23 28 33 38
88 91 90 90 91 93 93 90 88 83 77 72 67 65 62 59 56 54 58 61 66 55 51 45 45 45 40 39 32 29 29 23 19 14 14 12 14 18 20 25 27 29 30
81 83 85 85 86 88 90 90 88 86 83 78 72 68 63 61 58 56 57 64 64 60 56 52 51 47 46 47 42 31 32 30 29 24 21 23 25 20 24 26 24 31 30
79 77 80 83 83 81 83 85 86 86 86 82 77 73 66 61 59 58 56 61 63 65 64 57 55 56 48 52 46 43 36 34 38 42 41 29 29 29 25 22 25 24 26
73 73 73 75 79 79 77 79 81 84 85 85 82 78 72 65 61 59 56 59 67 65 67 70 64 60 60 50 51 44 35 35 33 36 32 36 34 30 29 33 25 26 25
67 69 70 71 72 73 73 75 76 78 81 84 83 81 76 72 65 60 57 60 63 65 66 70 70 65 61 56 51 45 40 37 37 39 36 37 38 41 38 38 34 33 36
Wind_Direction
284 291 294 298 307 318 326 335 345 358 4 334 344 356 10 16 11 16 20 25 26 26 28 28 27 26 23 24 25 22 26 20 16 23 21 22 20 20 20 24 27 65 152
276 279 284 289 297 309 318 324 332 346 356 355 339 333 353 355 355 359 8 10 14 16 28 21 20 27 22 24 23 20 21 25 22 24 24 25 24 21 20 24 27 52 152
272 273 277 280 287 297 307 314 319 331 345 348 349 333 320 331 330 345 334 347 355 4 13 20 20 21 23 22 22 20 22 23 22 27 25 25 26 24 23 24 27 36 163
260 261 267 273 277 287 297 305 311 321 331 344 344 334 303 310 316 316 321 346 351 356 9 19 22 21 16 21 21 24 23 23 22 27 25 28 29 28 26 29 29 33 114
247 252 258 267 269 278 290 299 306 314 319 333 339 329 310 294 301 304 318 328 345 359 13 12 16 20 15 17 21 22 23 22 21 27 26 29 28 30 31 31 35 34 48
252 252 257 253 266 279 285 291 298 304 313 319 328 328 319 279 295 292 300 313 328 344 1 9 9 14 13 14 19 17 24 24 22 26 26 25 29 32 32 33 35 40 47
255 246 248 255 270 280 283 286 290 297 305 308 317 322 312 282 285 280 286 298 312 323 336 358 8 9 10 12 17 18 21 23 24 24 28 24 28 34 33 33 36 37 48
238 245 255 265 271 277 278 281 284 289 297 301 306 313 310 289 283 284 280 289 301 303 317 332 349 359 4 8 16 18 21 23 25 23 24 26 23 31 34 34 35 39 42
239 247 255 261 266 269 272 275 279 284 289 294 298 303 305 287 281 287 280 281 296 299 303 321 332 358 5 2 10 16 19 20 25 19 19 26 25 30 34 36 36 37 41
240 246 254 259 261 263 267 270 274 279 285 288 291 293 295 284 277 281 285 279 283 296 308 330 319 323 358 1 5 12 16 18 22 21 18 24 28 26 32 36 40 39 37
246 249 251 253 258 261 264 266 270 274 279 283 285 290 289 275 271 289 291 292 282 285 299 311 325 321 359 355 359 8 13 14 20 16 17 18 28 28 28 32 37 39 39
245 247 250 253 254 258 260 263 267 271 273 275 278 282 282 261 264 294 305 304 305 306 288 296 322 327 349 347 355 360 7 10 15 19 14 14 21 26 29 30 31 36 37
243 245 247 250 252 254 255 257 261 264 267 267 272 276 276 255 262 276 275 294 297 295 292 293 319 315 318 340 351 352 360 5 8 11 13 13 14 21 26 27 27 30 33
241 243 247 249 251 253 254 256 258 261 262 262 265 264 274 268 262 275 248 279 281 295 311 308 294 294 303 333 338 345 348 358 1 2 7 12 12 17 21 23 26 25 31
239 241 240 244 246 249 251 252 255 257 258 258 261 257 256 253 253 258 243 252 260 276 276 280 267 283 306 317 324 338 340 347 355 355 358 4 11 11 20 19 23 18 28
235 237 239 241 243 245 248 251 252 254 255 256 256 253 254 250 241 242 247 245 255 264 267 272 272 285 290 302 315 331 339 338 348 350 356 357 9 10 12 23 18 18 19
234 236 237 238 240 242 244 246 249 250 251 252 251 249 252 242 245 234 235 239 239 254 263 271 275 281 284 285 300 314 317 329 339 337 349 354 8 9 7 13 18 18 17
232 233 235 237 238 239 240 242 245 248 250 251 248 250 251 246 241 244 242 242 236 244 261 264 268 279 283 283 294 304 307 313 322 329 348 351 358 11 12 8 11 18 13
233 235 235 235 236 238 239 241 242 245 248 248 248 249 250 248 244 242 243 246 242 247 250 256 263 269 274 281 290 289 301 301 306 318 327 352 359 5 3 11 6 11 11
234 233 233 234 236 237 238 239 241 243 245 246 247 246 248 249 247 245 244 248 246 243 246 250 255 265 272 284 283 278 297 299 300 299 305 323 339 355 359 2 7 3 5
234 233 233 234 235 236 237 239 240 241 242 243 245 245 245 247 247 246 246 241 245 246 242 246 251 255 267 271 282 281 294 301 283 289 302 326 335 335 355 359 1 357 0
234 234 233 234 233 235 236 237 238 240 240 241 243 244 243 245 246 246 245 245 243 245 242 245 251 255 261 265 278 276 280 278 262 275 302 310 320 337 346 345 353 346 352
235 234 233 234 235 234 234 235 236 237 238 239 240 241 242 243 245 246 250 245 245 243 239 247 252 257 261 258 268 277 265 269 270 282 292 299 313 318 329 332 340 342 337
235 234 233 232 233 235 235 235 235 235 236 236 237 239 240 240 243 243 246 247 245 244 241 245 251 255 264 263 266 269 270 276 281 279 278 289 297 304 324 322 320 330 331
232 233 233 232 233 234 235 235 235 234 235 235 236 237 238 238 241 241 243 246 245 250 248 247 253 255 258 262 264 270 279 277 268 278 286 292 293 301 306 316 318 322 318
231 231 231 232 232 232 232 234 234 234 234 233 233 235 236 237 239 240 240 244 246 248 251 251 253 253 255 260 264 265 270 262 263 271 280 287 290 295 302 303 305 304 304
Height
11031 11032 11035 11035 11034 11034 11032 11028 11027 11025 11021 11018 11014 11011 11006 11001 10996 10992 10988 10982 10976 10969 10961 10951 10941 10930 10920 10908 10895 10879 10862 10842 10820 10797 10772 10739 10710 10688 10671 10657 10649 10648 10651
11023 11024 11026 11029 11030 11029 11028 11026 11025 11023 11020 11017 11013 11010 11006 11002 10997 10992 10988 10985 10979 10971 10962 10954 10944 10933 10923 10912 10901 10887 10870 10850 10834 10812 10784 10753 10725 10698 10680 10668 10661 10659 10659
11015 11013 11018 11021 11024 11025 11023 11022 11021 11020 11018 11015 11013 11009 11006 11002 10997 10993 10988 10985 10980 10972 10964 10957 10948 10937 10927 10916 10905 10893 10879 10861 10842 10821 10797 10769 10742 10716 10695 10680 10671 10670 10672
10999 11001 11005 11013 11016 11018 11017 11018 11017 11017 11016 11014 11011 11009 11006 11002 10996 10994 10988 10985 10980 10975 10967 10959 10951 10940 10930 10920 10910 10899 10888 10872 10851 10834 10813 10786 10760 10734 10709 10693 10681 10677 10679
10987 10990 10993 11002 11009 11010 11011 11012 11013 11014 11013 11012 11009 11007 11005 11002 10996 10992 10989 10985 10981 10976 10969 10961 10953 10945 10935 10924 10915 10905 10892 10878 10859 10843 10822 10802 10779 10753 10729 10709 10695 10686 10685
10980 10982 10987 10993 10999 11001 11004 11007 11009 11009 11009 11008 11007 11005 11002 11000 10996 10991 10988 10985 10982 10977 10970 10964 10956 10948 10940 10931 10919 10909 10897 10884 10868 10854 10834 10817 10795 10768 10749 10729 10708 10699 10694
10972 10979 10981 10985 10989 10990 10995 11000 11003 11005 11005 11004 11004 11002 11000 10997 10993 10988 10986 10983 10980 10978 10971 10966 10959 10952 10944 10936 10925 10914 10903 10891 10880 10865 10847 10833 10814 10790 10768 10750 10731 10713 10708
10963 10964 10971 10976 10979 10981 10987 10993 10996 10999 11000 10999 10998 10998 10996 10993 10992 10986 10982 10981 10978 10977 10972 10966 10961 10954 10947 10941 10932 10921 10910 10900 10888 10876 10863 10848 10831 10811 10790 10772 10753 10735 10723
10950 10955 10961 10964 10970 10972 10978 10984 10988 10991 10994 10993 10992 10992 10991 10990 10989 10984 10978 10979 10976 10974 10971 10967 10962 10955 10949 10942 10936 10927 10916 10907 10897 10886 10875 10860 10845 10829 10812 10793 10773 10755 10744
10938 10943 10947 10954 10959 10964 10968 10974 10978 10983 10987 10986 10985 10986 10987 10988 10985 10982 10975 10976 10974 10970 10968 10966 10961 10958 10950 10945 10938 10931 10922 10912 10903 10895 10885 10872 10859 10844 10833 10815 10797 10781 10765
10918 10927 10935 10941 10946 10953 10959 10963 10968 10974 10978 10979 10979 10980 10980 10983 10981 10979 10973 10973 10972 10967 10967 10964 10960 10956 10951 10946 10940 10934 10925 10917 10907 10899 10889 10880 10869 10858 10847 10835 10820 10806 10794
10902 10911 10920 10923 10932 10940 10946 10952 10958 10963 10967 10971 10971 10973 10972 10976 10977 10974 10970 10967 10967 10964 10962 10961 10958 10954 10949 10947 10941 10936 10928 10920 10912 10904 10896 10886 10878 10869 10860 10849 10835 10825 10813
10885 10894 10902 10909 10915 10926 10932 10938 10945 10951 10956 10960 10963 10965 10964 10970 10969 10967 10966 10962 10962 10958 10957 10957 10955 10953 10950 10946 10941 10936 10932 10924 10916 10908 10901 10893 10885 10876 10869 10859 10849 10837 10826
10864 10877 10887 10893 10900 10910 10917 10924 10930 10937 10944 10948 10951 10954 10958 10961 10960 10962 10960 10958 10957 10956 10954 10953 10950 10948 10947 10944 10940 10935 10932 10927 10919 10912 10904 10898 10892 10884 10874 10865 10857 10848 10838
10848 10856 10866 10873 10884 10894 10901 10909 10916 10922 10928 10933 10937 10940 10944 10947 10949 10950 10951 10950 10951 10952 10950 10947 10945 10942 10941 10940 10938 10935 10932 10927 10922 10915 10908 10901 10898 10889 10880 10871 10864 10853 10846
10824 10834 10843 10856 10866 10876 10884 10893 10900 10906 10913 10920 10924 10926 10929 10933 10937 10940 10942 10944 10943 10943 10942 10942 10941 10940 10938 10938 10936 10936 10931 10926 10922 10917 10910 10905 10899 10893 10885 10878 10869 10861 10852
10801 10815 10824 10837 10847 10857 10867 10877 10884 10890 10899 10904 10908 10912 10917 10922 10927 10929 10931 10934 10936 10935 10934 10934 10935 10935 10933 10934 10935 10933 10930 10925 10920 10918 10914 10907 10899 10895 10889 10882 10875 10868 10859
10776 10790 10803 10816 10827 10839 10848 10859 10866 10875 10883 10890 10893 10898 10903 10910 10914 10918 10920 10922 10924 10925 10925 10926 10927 10928 10927 10928 10928 10928 10927 10922 10918 10915 10910 10907 10900 10894 10890 10886 10879 10873 10865
10755 10770 10782 10795 10807 10819 10831 10840 10850 10857 10865 10873 10878 10883 10889 10895 10900 10904 10907 10910 10913 10915 10916 10918 10920 10921 10921 10922 10922 10921 10921 10917 10915 10912 10908 10903 10899 10893 10889 10887 10883 10878 10872
10731 10746 10760 10772 10787 10799 10812 10821 10832 10841 10848 10855 10861 10867 10874 10880 10886 10890 10893 10896 10902 10906 10908 10910 10912 10913 10913 10915 10915 10915 10915 10911 10910 10907 10905 10902 10898 10893 10888 10885 10883 10878 10874
10709 10725 10738 10752 10766 10779 10792 10803 10814 10823 10831 10839 10845 10852 10860 10865 10870 10875 10879 10883 10887 10894 10898 10901 10902 10904 10905 10906 10907 10908 10907 10905 10903 10903 10900 10897 10894 10891 10887 10885 10882 10880 10874
10689 10705 10719 10732 10745 10758 10771 10782 10793 10803 10813 10821 10829 10836 10844 10850 10855 10860 10864 10869 10874 10882 10886 10889 10891 10893 10896 10898 10898 10899 10899 10899 10896 10895 10892 10891 10889 10886 10883 10881 10877 10876 10874
10673 10688 10701 10713 10724 10737 10748 10759 10771 10782 10793 10803 10812 10819 10827 10834 10839 10844 10848 10854 10861 10868 10872 10876 10879 10883 10885 10886 10889 10889 10890 10890 10890 10889 10886 10884 10883 10880 10877 10876 10874 10872 10869
10654 10669 10681 10693 10705 10716 10727 10740 10751 10761 10771 10782 10793 10801 10810 10817 10823 10829 10834 10838 10845 10851 10858 10862 10866 10870 10872 10874 10877 10876 10877 10878 10880 10879 10879 10877 10874 10873 10873 10870 10868 10866 10865
10639 10650 10663 10676 10686 10698 10710 10720 10730 10740 10751 10763 10773 10782 10792 10800 10806 10813 10819 10822 10828 10834 10839 10845 10851 10855 10858 10861 10863 10865 10865 10867 10868 10869 10870 10869 10867 10865 10864 10864 10862 10859 10859
10623 10634 10646 10657 10669 10682 10693 10701 10710 10722 10732 10743 10753 10762 10773 10782 10789 10797 10803 10807 10812 10818 10821 10827 10832 10839 10843 10846 10848 10852 10855 10855 10856 10858 10859 10859 10858 10858 10857 10856 10854 10853 10850